Location: New Plymouth
(39.0670°S, 174.0830°E)
Time: 16:34:45
(UTC+13:00)

ISS - Pass Details

Date: 09 December 2023
Orbit: 414 x 422 km, 51.6° (Epoch: 26 February)

Event Time Altitude Azimuth Distance (km) Brightness Sun altitude
Rises 03:00:25 0° 229° (SW) 2,441 0.3 -23.5°
Reaches altitude 10° 03:03:54 10° 192° (SSW) 1,561 -0.2 -23.2°
Maximum altitude 03:05:05 11° 173° (S) 1,479 -0.1 -23.1°
Drops below altitude 10° 03:06:15 10° 153° (SSE) 1,553 0.2 -23.0°
Sets 03:09:42 0° 117° (ESE) 2,409 1.0 -22.7°
